RH
36 38 38 41 40 43 46 49 52 52 52 53 51 54 57 58 57 62 64 70 74 75 78 81 79 80 87 89 92 93 93 93 98 91 84 82 83 87 85 82 89 91 88
37 38 40 39 39 39 42 43 46 47 50 49 50 53 54 56 58 62 67 64 72 77 77 81 79 69 84 86 90 91 90 88 95 97 90 88 87 85 87 88 93 85 89
37 39 40 41 39 38 38 40 42 44 45 48 50 52 53 56 59 64 68 71 74 77 77 79 79 80 85 87 88 90 88 87 94 96 93 90 92 90 91 93 95 92 81
40 40 41 40 38 38 37 41 42 44 44 47 48 50 56 58 60 65 67 74 77 72 75 79 79 81 84 86 87 87 87 92 92 94 93 94 94 93 95 96 95 93 94
40 42 42 40 38 40 43 44 43 45 44 47 48 53 56 56 48 59 67 76 82 82 81 77 81 78 68 65 71 80 86 92 93 94 93 96 94 97 97 96 95 92 93
40 42 43 42 39 40 43 45 46 48 49 52 55 55 56 49 50 50 55 70 77 83 84 83 82 69 76 67 69 70 72 93 96 96 95 97 94 97 97 97 95 96 98
40 41 41 39 39 40 42 47 48 50 54 56 56 57 59 60 55 50 51 61 74 78 82 82 74 61 76 85 78 71 72 83 86 93 97 93 93 92 96 97 96 97 94
39 39 37 36 37 41 46 48 50 55 57 57 56 58 62 58 55 52 54 65 72 79 82 83 85 86 88 75 74 77 83 85 87 90 95 92 92 92 91 91 95 96 95
38 36 35 35 38 43 48 50 55 59 59 59 57 59 64 61 57 60 57 70 78 84 81 84 87 91 75 65 74 87 89 81 78 83 86 90 83 88 92 97 97 98 98
36 34 33 34 38 43 48 54 59 59 54 55 56 61 59 66 62 61 55 68 79 78 76 83 73 62 64 67 77 92 90 88 89 87 90 93 84 90 90 96 96 94 92
34 35 36 36 39 42 52 59 58 58 60 62 60 62 62 66 73 62 57 66 66 68 69 67 65 66 69 67 70 87 91 86 85 89 95 96 94 94 95 95 96 85 89
36 37 38 41 34 43 54 58 58 61 64 63 64 64 68 72 67 64 60 60 63 76 75 71 81 71 69 70 73 78 82 80 88 90 93 96 95 94 95 92 89 74 68
36 39 41 43 45 51 55 56 60 63 66 64 67 71 74 74 74 67 67 67 68 72 74 72 67 71 74 78 78 76 82 88 90 92 92 94 93 91 91 93 83 77 70
37 43 47 46 52 52 50 52 58 63 68 68 70 77 81 78 81 83 81 85 78 78 76 84 75 74 77 79 80 86 85 88 91 93 92 93 94 92 92 90 89 73 77
38 43 46 47 51 50 54 56 58 58 60 66 74 77 82 88 84 76 75 84 91 80 72 89 91 90 91 89 86 88 88 88 91 91 91 93 95 92 91 88 81 72 78
38 41 45 50 57 56 57 61 60 61 65 68 69 73 78 73 66 66 68 71 73 71 83 92 93 92 93 91 91 93 91 88 90 91 91 93 94 91 90 88 81 73 80
40 43 54 52 53 62 65 66 68 68 65 64 64 64 66 69 68 68 71 72 72 70 89 92 95 92 91 91 92 93 94 91 89 93 93 94 90 88 92 88 82 75 78
46 54 58 60 63 67 69 72 78 82 90 88 75 74 72 67 70 73 73 74 89 83 90 92 93 92 91 92 93 92 92 91 91 92 92 94 95 90 93 89 84 78 78
61 67 66 72 74 72 78 81 85 88 93 95 95 83 76 74 75 75 73 90 94 95 91 91 90 93 91 91 93 92 92 92 92 93 92 92 94 93 90 92 82 79 78
70 68 71 78 82 81 84 86 91 96 96 88 88 92 93 93 95 93 91 92 95 94 91 90 88 93 90 92 94 93 92 92 92 93 92 92 94 93 89 86 84 80 80
85 80 75 81 82 86 90 94 90 94 94 96 88 86 75 90 94 88 94 95 95 82 79 78 86 92 92 92 95 92 91 92 89 92 93 92 94 93 94 79 80 77 81
83 86 85 88 90 90 87 90 94 94 92 86 88 84 77 82 84 89 95 95 94 86 76 71 80 92 92 94 94 92 88 92 90 91 93 93 93 94 91 84 78 78 80
84 88 92 90 89 80 87 89 91 92 89 86 93 95 89 88 95 95 94 95 93 86 86 80 90 95 90 91 90 93 91 92 93 94 96 94 92 95 90 85 78 80 81
92 89 87 86 88 88 89 94 96 91 92 90 93 95 96 94 90 94 95 94 90 89 91 91 92 92 88 84 85 87 88 91 92 94 95 96 95 95 93 84 80 79 82
87 86 85 87 88 92 94 97 97 96 95 90 92 96 97 96 96 94 95 96 93 96 95 91 88 90 85 82 81 81 87 94 95 95 95 96 96 97 92 86 83 80 82
89 85 86 89 92 93 96 97 96 92 91 87 87 96 90 92 97 97 96 97 84 91 93 87 92 87 83 81 82 86 94 94 92 93 96 97 97 97 85 84 81 82 82
Wind_Speed
16 14 13 11 10 8 8 7 7 6 7 6 6 6 6 6 6 6 6 7 7 7 7 7 9 9 7 7 7 9 10 11 15 16 13 15 17 14 13 13 11 11 9
16 15 14 12 10 9 8 8 7 7 6 7 6 6 6 6 6 6 7 7 7 7 8 7 10 7 8 9 9 12 11 13 13 19 15 16 17 14 13 13 10 7 8
16 15 13 12 11 10 10 8 7 7 7 6 6 6 6 6 6 6 6 7 7 8 8 9 11 9 10 9 10 11 11 12 12 13 17 13 12 8 12 13 8 5 10
15 15 15 13 13 11 10 8 8 7 7 6 6 6 6 6 5 6 6 7 7 8 9 10 10 10 11 11 11 13 12 12 15 14 15 10 8 8 6 7 4 5 11
16 15 15 13 12 10 9 8 7 7 6 5 5 5 5 4 5 5 6 7 7 8 8 8 7 12 21 18 11 12 13 14 14 16 14 6 8 4 6 3 5 6 11
16 15 13 12 12 11 9 8 7 6 6 5 5 5 5 4 10 15 12 6 6 5 6 7 6 15 15 20 22 27 22 17 19 15 12 7 8 4 4 2 1 6 7
15 14 14 13 13 11 9 7 7 7 5 6 5 5 6 6 12 14 16 4 3 5 6 8 9 8 15 10 18 26 25 29 29 19 12 8 7 8 6 5 8 6 7
15 14 14 13 12 10 8 8 6 5 7 5 6 6 5 6 12 15 15 4 5 7 8 9 9 9 8 15 14 16 17 18 17 13 13 8 7 7 8 6 5 9 12
15 15 14 14 13 11 9 8 5 6 5 5 5 5 5 6 13 14 12 4 6 8 8 8 8 8 15 24 16 16 16 17 18 26 27 19 12 6 5 2 5 9 14
16 15 14 14 13 12 9 8 5 4 6 4 5 6 7 6 11 11 12 3 5 6 7 8 15 16 23 24 16 12 15 15 15 17 16 6 12 9 12 5 4 10 12
14 13 13 12 12 10 8 6 6 6 4 4 5 5 5 6 7 11 15 4 5 7 7 7 7 19 25 25 24 9 15 18 16 12 9 7 6 5 5 4 7 9 11
14 13 13 11 9 7 9 6 5 5 5 5 3 5 4 5 9 10 14 13 12 5 8 7 8 21 26 24 19 22 25 21 9 9 8 6 8 7 4 4 5 9 8
14 13 11 10 7 7 7 6 4 5 4 4 3 4 4 4 4 12 14 14 16 10 7 12 23 23 23 16 17 21 21 9 9 9 8 8 7 7 6 5 5 11 12
14 12 9 9 7 6 4 4 4 4 3 3 4 4 4 4 4 4 4 6 11 10 10 7 13 18 18 16 13 8 9 9 10 9 8 9 6 8 7 7 7 10 11
11 9 8 7 7 6 4 5 4 4 5 4 4 4 4 4 4 9 9 5 4 5 7 3 5 7 7 8 8 8 10 9 9 9 8 10 8 8 7 10 9 12 9
10 7 7 6 4 4 4 3 5 6 6 8 11 7 3 7 9 13 13 14 14 14 2 3 5 7 7 8 8 9 10 12 9 10 9 10 9 10 10 11 10 12 12
8 7 6 6 5 5 3 3 3 2 1 4 6 5 7 7 12 13 13 14 13 7 1 3 4 6 7 8 7 7 11 11 13 9 10 9 9 10 13 14 12 13 13
7 13 6 5 5 4 4 3 3 3 2 3 5 6 7 8 9 11 11 10 4 3 2 4 4 6 7 8 8 8 11 11 11 11 10 8 6 9 9 13 13 15 14
7 5 5 4 4 4 4 3 3 2 3 3 2 4 6 7 9 9 10 1 3 4 4 4 4 5 6 6 7 7 10 10 12 11 9 8 6 8 13 11 14 20 19
6 13 8 4 4 4 3 3 3 3 4 3 2 3 2 3 3 3 3 3 4 5 4 5 5 5 5 6 6 6 9 10 11 10 9 9 10 9 13 16 14 15 14
5 5 10 4 3 3 3 3 2 1 3 3 3 3 10 4 4 3 3 4 4 6 6 5 5 5 5 6 6 6 9 9 10 11 11 9 9 8 8 15 16 15 14
5 4 4 3 3 3 3 2 2 3 3 2 2 3 10 3 2 2 4 4 5 6 6 5 5 4 5 6 6 6 9 11 12 11 11 10 9 8 12 13 15 15 15
5 5 4 3 3 4 3 1 1 1 2 1 2 4 3 4 3 4 4 4 5 6 6 5 5 5 5 5 5 5 7 9 11 11 12 10 9 9 14 15 17 15 15
5 5 4 4 3 3 3 0 2 3 3 3 2 3 4 4 3 3 4 4 6 6 5 5 5 7 7 6 5 4 6 9 10 11 14 11 8 9 9 14 16 18 14
5 5 4 3 3 2 0 1 2 2 2 2 3 3 4 4 4 4 4 4 6 5 7 7 5 7 10 11 8 8 12 19 17 19 10 10 10 11 10 12 15 14 18
4 4 3 3 3 2 1 1 1 1 2 3 3 5 4 3 4 4 4 4 6 7 9 6 6 11 12 9 8 11 18 20 20 23 13 7 7 7 12 15 20 14 18
Wind_Direction
180 177 178 183 186 178 177 186 189 186 196 200 213 229 239 250 261 258 264 269 263 265 265 259 260 257 254 253 247 247 247 249 266 282 279 278 273 260 255 251 221 232 267
176 176 180 178 179 176 184 186 181 196 192 203 212 227 239 251 261 257 263 274 266 265 264 260 263 267 256 255 252 252 253 257 264 275 278 274 261 245 237 252 237 241 270
172 173 176 178 177 183 187 181 182 190 199 208 212 226 243 253 262 266 254 261 261 258 261 260 263 263 264 263 258 261 264 267 269 278 283 271 247 236 229 220 198 251 263
171 175 179 179 181 183 182 177 182 189 196 212 219 233 242 251 260 262 261 262 262 264 259 256 261 264 267 272 268 270 271 284 290 282 278 265 227 222 213 189 166 236 254
174 179 183 178 177 172 172 177 185 187 202 205 226 245 247 250 255 259 255 256 257 265 276 277 270 274 286 300 298 297 303 295 292 291 293 241 218 210 218 185 162 235 265
175 181 174 170 171 175 176 179 181 190 194 202 212 227 264 262 279 304 303 274 274 281 282 277 267 297 288 294 305 301 303 294 289 294 292 212 199 195 165 193 257 245 194
176 173 171 171 173 176 174 169 181 186 179 196 221 233 253 263 285 302 307 301 279 281 281 284 293 297 305 284 297 298 299 297 299 300 294 247 194 189 178 150 205 237 194
173 169 170 168 172 168 160 174 172 166 187 197 229 240 249 269 288 305 304 297 287 281 276 281 286 287 278 303 302 303 302 300 306 308 303 264 221 188 170 163 219 236 139
170 169 168 164 163 160 166 170 169 173 184 211 224 254 246 272 290 296 310 287 276 275 276 275 276 274 296 315 312 303 302 312 313 316 309 275 224 175 160 186 234 212 134
170 168 161 158 158 164 165 165 167 171 198 209 251 237 257 260 289 295 313 291 273 276 277 272 284 309 314 317 312 317 319 308 312 318 314 250 207 204 214 228 272 159 137
154 149 148 152 153 158 152 153 170 184 194 230 252 275 264 253 268 292 306 290 292 303 295 290 294 309 314 315 319 326 308 317 320 312 301 231 204 204 195 207 247 168 147
142 141 143 140 148 147 155 167 166 168 198 234 262 285 266 261 271 296 306 306 300 280 283 293 295 306 317 318 322 316 331 330 310 311 312 206 191 209 195 200 222 150 129
137 137 134 135 139 148 153 166 164 176 190 239 228 257 270 264 268 297 303 301 298 299 299 303 315 315 316 319 310 326 332 317 313 313 314 307 210 180 175 179 167 149 117
130 125 126 138 141 148 152 159 171 181 188 214 235 249 254 259 276 283 277 283 289 289 289 295 309 315 315 310 313 321 317 314 311 304 292 281 225 160 169 176 146 153 130
120 126 137 146 155 155 170 174 188 199 179 199 223 218 232 271 258 274 299 287 278 266 323 317 314 314 313 313 314 333 325 316 314 308 297 282 181 164 175 172 166 153 144
128 136 147 143 144 147 164 166 212 221 227 217 230 246 241 252 304 318 308 313 315 310 353 312 304 303 308 310 317 328 323 320 319 306 304 287 171 171 178 173 158 157 147
132 136 136 140 152 156 157 176 208 336 285 261 274 288 303 298 313 316 309 312 316 321 277 289 286 294 304 303 313 326 320 317 314 317 307 304 181 182 178 173 154 151 152
144 152 145 156 157 148 157 178 174 198 215 292 300 299 288 322 322 316 309 320 326 325 261 275 277 284 294 301 311 327 320 318 321 320 315 295 219 176 188 163 158 155 154
129 135 134 133 142 146 143 149 184 214 238 240 252 277 304 338 322 309 316 293 286 281 272 275 266 270 281 291 297 317 315 317 318 316 306 314 290 194 177 154 158 161 153
120 138 134 133 134 133 139 168 201 216 230 252 274 261 276 8 306 290 285 286 282 270 265 264 271 260 276 284 287 312 314 313 315 318 312 318 323 199 173 156 157 158 158
119 131 140 132 142 149 153 172 181 248 261 249 250 276 294 275 256 245 280 291 282 286 276 268 275 272 282 285 285 307 316 310 311 315 324 322 318 229 176 163 156 160 155
122 124 131 138 146 134 123 135 206 229 250 264 290 297 304 280 277 300 295 288 280 281 275 284 288 275 283 279 285 294 318 315 317 313 312 313 297 294 166 164 158 157 158
125 133 129 126 123 126 111 109 296 321 285 277 312 286 306 288 278 286 290 285 285 286 279 285 292 292 285 274 275 268 306 311 308 304 304 297 291 301 174 163 161 158 163
125 127 127 121 132 116 90 359 284 288 305 301 301 298 289 282 288 293 293 293 286 286 284 285 280 287 290 293 290 284 297 302 302 298 300 295 282 291 175 161 163 162 154
126 118 124 131 117 124 255 262 290 306 313 314 322 296 285 298 303 300 301 303 301 306 301 297 291 291 293 299 304 309 306 307 307 300 289 280 266 263 174 165 160 156 154
125 130 143 124 136 158 177 260 308 306 300 320 297 282 285 317 298 299 311 310 322 310 306 302 296 297 300 302 304 310 309 310 309 313 314 278 251 247 182 166 162 156 158